User: anonymous   Login
Location: Carrer del Canonge
(41.4901°N, 2.2931°E)
Time: 19:27:56
(UTC+00:00)
Language:

Meteor 2-13 Rocket - Orbit

View from above orbital plane
View from above orbital plane
View from above satellite
View from above satellite

Ground track
Ground track

The orbit data is extracted from the following two-line orbital elements,

1 16409U 85119B   21169.41976801  .00000020  00000-0  43344-5 0  9994
2 16409  82.5376 275.3613 0013807 237.4332 122.5496 13.84817951792917
Epoch (UTC): 18 June 2021 10:04:27
Eccentricity: 0.0013807
inclination: 82.5376°
perigee height: 937 km
apogee height: 957 km
right ascension of ascending node: 275.3613°
argument of perigee: 237.4332°
revolutions per day: 13.84817951
mean anomaly at epoch: 122.5496°
orbit number at epoch: 79291

The dashed part of the orbit path shows where the satellite is in the earth's shadow,  

DLR